Location: Recife
(8.0585°S, 34.8848°W)
Time: 12:15:29
(UTC-03:00)

Transit 4A - Pass Details

Date: 20 April 2026
Orbit: 861 x 980 km, 66.8° (Epoch: 12 May)

Event Time Altitude Azimuth Distance (km) Brightness Sun altitude
Rises 10:36:50 0° 187° (S) 3,444 10.7 67.7°
Reaches altitude 10° 10:39:27 10° 180° (S) 2,508 10.1 68.0°
Maximum altitude 10:44:51 40° 111° (ESE) 1,254 9.3 68.6°
Drops below altitude 10° 10:50:18 10° 42° (NE) 2,540 10.6 69.1°
Sets 10:52:57 0° 35° (NE) 3,492 11.2 69.3°
